AEHF-3 (USA 246)

Last updated on Oct. 1, 2020, 5:42 a.m. UTC

1 39256U 13050A   20274.88262403 -.00000369  00000-0  00000-0 0  9991
2 39256   0.5926  16.7666 0003274 195.1481 227.0250  1.00271945 24762
UTC
Height (km)
Latitude
Longitude
Inclination
Orbital Period
UTC large
Height (km)
Speed (km/s)
/
Latitude / Longitude
Inclination (degrees)
Orbital Period (minutes)
Azimuth
Elevation
Range (km)
Doppler Factor
iOS Compass Heading
iOS Angle

Next 30 passes for location: Hong Kong

Rise time Rise Azimuth (degrees) Set time Set Azimuth (degrees) Duration Max altitude (degrees)

No matching passes for this satellites